#timestamp,LO_Frequency,Hit,StdDev 
1516636815.8,286046998.4,N
1516636835.7,286047000.8,N
1516636855.5,286046997.9,N
1516636875.4,286046996.2,N
1516636895.2,286046996.3,N
1516636915.0,286046993.8,N
1516636915.9,286046993.8,N
1516636935.8,286046991.8,N
1516636955.6,286046990.9,N
1516636975.4,286046990.4,N
1516636995.3,286046992.6,N
1516637015.1,286046994.0,N
1516637035.9,286046993.5,N
1516637055.7,286046996.4,N
1516637075.5,286046996.5,N
1516637095.4,286046998.8,N
1516637115.2,286046993.3,N
1516637135.0,286046993.3,N
1516637135.9,286046993.3,N
1516637155.8,286046993.5,N
1516637175.6,286046992.0,N
1516637195.5,286046996.3,N
1516637215.3,286046998.0,N
1516637235.1,286046997.4,N
1516637255.9,286046999.4,N
1516637275.7,286046999.0,N
1516637295.5,286046998.8,N
1516637315.4,286046996.7,N
1516637335.2,286046999.3,N
1516637355.1,286046999.3,N
1516637356.0,286046999.3,N
1516637375.8,286046999.3,N
1516637395.6,286047000.1,N
1516637415.5,286047001.7,N
1516637435.3,286047002.2,N
1516637455.1,286047001.3,N
1516637475.9,286047002.6,N
1516637495.7,286047002.4,N
1516637515.6,286047000.6,N
1516637535.4,286046996.6,N
1516637555.2,286046996.6,N
1516637575.1,286046996.5,N
1516637576.0,286046996.5,N
1516637595.8,286046995.4,N
1516637615.7,286046997.8,N
1516637635.5,286046997.7,N
1516637655.3,286047000.7,N
1516637675.2,286046998.9,N
1516637695.0,286047001.2,N
1516637695.9,286047001.2,N
1516637715.7,286046999.1,N
1516637735.6,286046998.4,N
1516637755.4,286046997.4,N
1516637775.3,286046997.0,N
1516637795.1,286046996.8,N
1516637796.0,286046996.8,N
1516637815.8,286046998.8,N
1516637835.7,286047000.0,N
1516637855.5,286046995.7,N
1516637875.3,286046994.9,N
1516637895.2,286046996.8,N
1516637915.0,286046998.6,N
1516637915.9,286046998.6,N
1516637935.8,286047002.1,N
1516637955.6,286047000.8,N
1516637975.4,286047003.2,N
1516637995.3,286047003.7,N
1516638015.1,286047002.6,N
1516638035.8,286047000.0,N
1516638055.7,286047001.5,N
1516638075.5,286047002.7,N
1516638095.4,286047002.7,N
1516638115.2,286047001.5,N
1516638135.0,286047000.2,N
1516638135.9,286047000.2,N
1516638155.8,286047002.7,N
1516638175.6,286047002.8,N
1516638195.4,286047002.7,N
1516638215.3,286047000.2,N
1516638235.1,286047000.3,N
1516638255.9,286046999.7,N
1516638275.7,286047001.9,N
1516638295.5,286047006.0,N
1516638315.4,286047005.9,N
1516638335.2,286047004.8,N
1516638355.0,286047007.6,N
1516638356.0,286047007.6,N
1516638375.8,286047007.1,N
1516638395.6,286047004.9,N
1516638415.5,286047004.5,N
1516638435.3,286047003.9,N
1516638455.1,286047004.5,N
1516638475.9,286047006.7,N
1516638495.7,286047007.7,Y
1516638515.6,286047005.6,P
1516638535.4,286047006.0,P
1516638555.2,286047001.6,N
1516638575.1,286047000.5,N
1516638576.0,286047000.5,N
1516638595.8,286047002.7,N
1516638615.6,286047005.8,N
1516638635.5,286047005.5,N
1516638655.3,286047004.4,N
1516638675.2,286047003.7,N
1516638695.9,286047001.6,N
1516638715.7,286047001.4,N
1516638735.6,286047002.5,N
1516638755.4,286046998.4,N
1516638775.2,286046996.9,N
1516638795.1,286046999.1,N
1516638796.0,286046999.1,N
1516638815.8,286046999.0,N
1516638835.7,286046994.0,N
1516638855.5,286046996.0,N
1516638875.3,286046996.0,N
1516638895.2,286046999.2,N
1516638915.0,286046997.9,N
1516638915.9,286046997.9,N
1516638935.8,286046995.6,N
1516638955.6,286046994.1,N
1516638975.4,286046995.5,N
1516638995.3,286046999.5,N
1516639015.1,286046995.7,N
1516639035.8,286046993.4,N
1516639055.7,286046998.9,N
1516639075.5,286046997.1,N
1516639095.4,286046995.8,N
1516639115.2,286046993.1,N
1516639135.0,286046997.8,N
1516639135.9,286046997.8,N
1516639155.8,286047000.9,N
1516639175.6,286046999.4,N
1516639195.5,286047000.9,N
1516639215.3,286047000.0,N
1516639235.1,286047002.6,N
1516639255.9,286047000.2,N
1516639275.7,286047001.0,N
1516639295.5,286046999.2,N
1516639315.4,286046997.8,N
1516639335.2,286046997.7,N
1516639355.1,286046996.8,N
1516639356.0,286046996.8,N
1516639375.8,286046997.2,N
1516639395.6,286046999.4,N
1516639415.5,286046996.9,N
1516639435.3,286046995.8,N
1516639455.2,286046991.7,Y
1516639475.9,286046997.8,P
1516639495.7,286046996.7,P
1516639515.6,286046999.0,N
1516639535.4,286046999.0,N
1516639555.2,286046996.9,Y
1516639575.1,286047000.2,P
1516639576.0,286047000.2,N
1516639595.8,286047003.1,P
1516639615.7,286047002.3,N
1516639635.5,286047002.3,N
1516639655.3,286047001.2,N
1516639675.2,286047000.6,N
1516639695.0,286046997.4,N
1516639695.9,286046997.4,N
1516639715.8,286046995.3,N
1516639735.6,286046999.1,N
1516639755.4,286046998.8,N
1516639775.3,286046996.9,N
1516639795.1,286046996.8,N
1516639815.8,286046997.6,N
1516639835.7,286046996.9,N
1516639855.5,286047001.7,N
1516639875.3,286047001.8,N
1516639895.2,286047001.3,N
1516639915.0,286047003.8,N
1516639915.9,286047003.8,N
1516639935.8,286047004.3,N
1516639955.6,286047002.9,N
1516639975.4,286047006.8,N
1516639995.3,286047005.7,N
1516640015.1,286047007.2,N
1516640035.9,286047007.2,N
1516640055.7,286047007.5,N
1516640075.5,286047005.3,N
1516640095.4,286047004.5,N
1516640115.2,286047006.2,N
1516640135.0,286047006.8,N
1516640135.9,286047006.8,N
1516640155.8,286047006.7,N
1516640175.6,286047006.2,N
1516640195.5,286047006.7,N
1516640215.3,286047004.9,N
1516640235.1,286047004.8,N
1516640255.9,286047004.0,N
1516640275.7,286047002.6,N
1516640295.5,286047006.0,N
1516640315.4,286047003.7,N
1516640335.2,286047005.8,N
1516640355.1,286047003.0,N
1516640356.0,286047003.0,N
1516640375.8,286047002.3,N
1516640395.6,286047003.9,N
